Regional Weather Roundup
Issued by NWS

Home | Current Version | Previous Version | Graphics & Text | Print | Product List | Glossary On
Versions: 1 2 3 4 5 6 7 8 9 10 11 12 13 14 15 16 17 18 19 20 21 22 23 24 25 26 27 28 29 30 31 32 33 34 35 36 37 38 39 40 41 42 43 44 45 46 47 48 49 50
000
ASUS43 KFSD 050010
RWRSD

WEATHER ROUNDUP FOR SOUTH DAKOTA
NATIONAL WEATHER SERVICE SIOUX FALLS SD
700 PM CDT SAT JUL 04 2015

NOTE: "FAIR" INDICATES FEW OR NO CLOUDS BELOW 12,000 FEET WITH NO
SIGNIFICANT WEATHER AND/OR OBSTRUCTIONS TO VISIBILITY.


SDZ001>005-009-010-012>017-050100-
NORTHWEST AND NORTH CENTRAL SOUTH DAKOTA

CITY           SKY/WX    TMP DP  RH WIND       PRES   REMARKS
BUFFALO          N/A     92  54  27 SE9       29.70S
FAITH            N/A     89  60  37 CALM      29.74F
MOBRIDGE       MOSUNNY   87  71  58 SE17      29.70F
$$

SDZ012>016-024>037-041>051-057-063-072>074-050100-
SOUTHWEST AND SOUTH CENTRAL SOUTH DAKOTA

CITY           SKY/WX    TMP DP  RH WIND       PRES   REMARKS
RAPID CTY ARPT SUNNY     88  63  43 S3        29.79F
PIERRE         SUNNY     87  68  52 SE15      29.69F
CUSTER         SUNNY     79  62  56 E12       29.97F
ELLSWORTH AFB  SUNNY     89  60  37 VRB3      29.79F
PHILIP         MOSUNNY   94  65  38 SW3       29.70F HX  96
PINE RIDGE     SUNNY     89  62  40 S13       29.79F
SPEARFISH      LGT RAIN  86  55  35 CALM      29.85F
WINNER         FAIR      92  62  36 S20G26    29.77F
$$

SDZ004>011-016>023-039-040-050100-
NORTHEAST SOUTH DAKOTA

CITY           SKY/WX    TMP DP  RH WIND       PRES   REMARKS
ABERDEEN       MOSUNNY   84  68  58 S14G23    29.77S
WATERTOWN      SUNNY     81  64  56 S13G22    29.84F
BROOKINGS      MOSUNNY   81  64  57 S14       29.88F
SISSETON         N/A     84  66  54 S12       29.78F
$$

SDZ017-020-022-023-036>040-048>070-050100-
SOUTHEAST SOUTH DAKOTA

CITY           SKY/WX    TMP DP  RH WIND       PRES   REMARKS
SIOUX FALLS    PTSUNNY   79  64  60 S14       29.88F
HURON          SUNNY     82  66  58 S17G28    29.78F
CHAMBERLAIN    SUNNY     83  70  63 SE17      29.77F
MITCHELL       SUNNY     83  68  60 SE14G23   29.81F
YANKTON        SUNNY     81  64  57 S16       29.85F
$$

ABBREVIATIONS USED IN REMARKS
   TC - TEMPERATURE IN CELSIUS
  WCI - WIND CHILL INDEX
   HX - HEAT INDEX
  VSB - VISIBILITY




USA.gov is the U.S. government's official web portal to all federal, state and local government web resources and services.